OPS 3151

导读

OPS 3151是美国于1977年2月6日发射的一颗军用间谍卫星,在冷战背景下承担战略侦察任务,主要用于获取对手军事部署、基础设施等机密情报。作为美国早期光学侦察卫星体系的一员,它依托近地轨道运行,通过星载成像设备对地观测,是美国空间战略监视网络的重要组成部分,服役结束后已坠入大气层销毁,其公开资料较少,保密属性鲜明。

Basic Information
目录编号:
9803
目录名称:
OPS 3151
国际标识:
1977-007A
轨道中心:
EARTH
卫星名称:
OPS 3151
卫星全名:
--
卫星状态:
在轨 (已飞行18028 天)
发射日期:
1977-02-06 UTC
国别 :
美国 (US)
星等 :
--
Orbit Information
数据来源 国际轨道数据 AOE轨道数据
星历时间 2026-06-17T07:30:59+0800
15小时前
查看轨道信息
2026-06-17T05:00:00+0800
18小时前
查看轨道信息
半长轴 42952.039km 42952.01km
偏心率 0.0078464 0.0078494
轨道倾角 4.725° 4.725°
近地点辐角 39.153° 39.162°
升交点赤经 284.372° 284.371°
平近点角 344.605° 307.785°
近地点 36236.883km 36236.725km
远地点 36910.921km 36911.021km
周期 1476.507分钟 1476.505分钟
每日圈数 0.975275 0.975276
Detailed Information
使用方式:
暂无
2D Orbit Map
3D Orbit Map
Orbit Altitude Analysis Chart
Orbit Inclination Analysis Chart
Orbit Comprehensive Analysis Chart
View Comprehensive Chart